Regional Weather Roundup
Issued by NWS Memphis, TN

Home | Current Version | Previous Version | Text Only | Print | Product List | Glossary On
Versions: 1 2 3 4 5 6 7 8 9 10 11 12 13 14 15 16 17 18 19 20 21 22 23 24 25 26 27 28 29 30 31 32 33 34 35 36 37 38 39 40 41 42 43 44 45 46 47 48 49 50
000
ASUS44 KMEG 011110
RWRMEG
MEMPHIS CWA HOURLY WEATHER ROUNDUP
NATIONAL WEATHER SERVICE MEMPHIS TN
600 AM CDT FRI JUL 01 2016

...WEST TENNESSEE...

CITY           SKY/WX    TMP DP  RH WIND       PRES   REMARKS
MEMPHIS INTL   MOCLDY    77  67  71 CALM      29.99S
NWS MEMPHIS      N/A     72 N/A N/A MISG        N/A
JACKSON        CLOUDY    71  64  78 SW5       29.99R
LEXINGTON      CLOUDY    66  66 100 CALM      29.99R
DYERSBURG      CLOUDY    75  66  73 MISG      29.97R
UNION CITY     CLOUDY    70  70 100 CALM      29.97R
PARIS          MOCLDY    64  64 100 E6        29.98F


...EASTERN ARKANSAS...

CITY           SKY/WX    TMP DP  RH WIND       PRES   REMARKS
JONESBORO      CLOUDY    74  67  78 CALM      29.97R
WEST MEMPHIS   PTCLDY    72  69  90 S6        29.96F
BATESVILLE     CLOUDY    70  66  88 CALM      29.98R
NEWPORT        CLOUDY    73  73 100 CALM      29.99R
WALNUT RIDGE   CLEAR     72  64  78 N3        29.97S
BLYTHEVILLE    PTCLDY    76  69  79 W3        29.97S
SEARCY         PTCLDY    71  70  96 SE3       29.99S
STUTTGART      CLOUDY    75  66  73 S7        29.99R
PINE BLUFF     CLEAR     71  68  90 S3        29.99R
MONTICELLO     CLEAR     73  66  78 W3        30.00R


...NORTH MISSISSIPPI...

CITY           SKY/WX    TMP DP  RH WIND       PRES   REMARKS
TUPELO         CLEAR     68  65  90 CALM      30.01R
OXFORD         CLEAR     66  64  94 CALM      30.03R
BATESVILLE     MOCLDY    65  64  96 CALM      30.01R
TUNICA         MOCLDY    70  68  94 CALM      30.00F
CLARKSDALE     MOCLDY    72  72 100 NW5       30.01R
CORINTH        CLOUDY    68  64  88 CALM      30.00R
GREENWOOD      PTCLDY    66  63  90 CALM      29.99R
COLUMBUS       CLEAR     62  61  95 CALM      30.00R
STARKVILLE     CLEAR     61  61 100 CALM      30.00R
GOLDEN TRIANGL CLEAR     63  57  82 CALM      30.00R


...SOUTHEAST MISSOURI...

CITY           SKY/WX    TMP DP  RH WIND       PRES   REMARKS
KENNETT        PTCLDY    75  72  88 W6        29.96R
WEST PLAINS    CLEAR     67  63  87 NW3       30.03R
POPLAR BLUFF   CLEAR     71  68  90 W5        29.96R
CAPE GIRARDEAU CLEAR     69  67  93 W3        29.95R


...NORTHWEST ALABAMA...

CITY           SKY/WX    TMP DP  RH WIND       PRES   REMARKS
MUSCLE SHOALS  CLEAR     64  60  87 CALM      30.02R


...MIDDLE TENNESSEE...

CITY           SKY/WX    TMP DP  RH WIND       PRES   REMARKS
NASHVILLE      CLOUDY    65  62  90 S6        30.00R
CLARKSVILLE    CLOUDY    69  62  78 W10       30.00R
COLUMBIA       CLEAR    N/A N/A N/A CALM      30.00R


...WESTERN KENTUCKY...

CITY           SKY/WX    TMP DP  RH WIND       PRES   REMARKS
PADUCAH        CLOUDY    69  66  90 CALM      29.95S
FORT CAMPBELL  LGT RAIN  70  65  82 W15       30.00R


...CENTRAL ARKANSAS...

CITY           SKY/WX    TMP DP  RH WIND       PRES   REMARKS
LITTLE ROCK    CLOUDY    77  67  71 W7        29.97F


SKY/WX REPORTED AS FAIR MEANS FEW OR NO CLOUDS BELOW
12 THOUSAND FEET.





USA.gov is the U.S. government's official web portal to all federal, state and local government web resources and services.